This is the latest recevied weather packets stored in our database for station/object APPOWX. If no packets are shown the sender has not sent any weather packets the latest 1 day(s).
| Time | Temp. | Humidity | Pressure | Rain* | Wind** | Luminosity | Snow |
|---|---|---|---|---|---|---|---|
| 1778023364 | 23.33° C | 43% | 1014.4 hPa | 0 mm | - | - | - |
| 1778023063 | 23.89° C | 42% | 1014.5 hPa | 0 mm | - | - | - |
| 1778023003 | 23.89° C | 42% | 1014.6 hPa | 0 mm | - | - | - |
| 1778022943 | 23.89° C | 43% | 1014.6 hPa | 0 mm | - | - | - |
| 1778022462 | 23.89° C | 42% | 1014.6 hPa | 0 mm | - | - | - |
| 1778022403 | 23.89° C | 42% | 1014.6 hPa | 0 mm | - | - | - |
| 1778022223 | 23.89° C | 41% | 1014.6 hPa | 0 mm | - | - | - |
| 1778021502 | 23.89° C | 41% | 1014.6 hPa | 0 mm | - | - | - |
| 1778021261 | 24.44° C | 41% | 1014.7 hPa | 0 mm | - | - | - |
| 1778020961 | 24.44° C | 40% | 1014.7 hPa | 0 mm | - | - | - |
| 1778020841 | 24.44° C | 40% | 1015 hPa | 0 mm | - | - | - |
| 1778020661 | 24.44° C | 40% | 1014.9 hPa | 0 mm | - | - | - |
| 1778020420 | 24.44° C | 39% | 1014.9 hPa | 0 mm | - | - | - |
| 1778020360 | 24.44° C | 39% | 1014.8 hPa | 0 mm | - | - | - |
| 1778020300 | 24.44° C | 41% | 1015 hPa | 0 mm | - | - | - |
| 1778020179 | 24.44° C | 39% | 1014.9 hPa | 0 mm | - | - | - |
| 1778019999 | 24.44° C | 40% | 1014.9 hPa | 0 mm | - | - | - |
| 1778019759 | 24.44° C | 38% | 1014.8 hPa | 0 mm | - | - | - |
| 1778019518 | 24.44° C | 38% | 1014.9 hPa | 0 mm | - | - | - |
| 1778019097 | 25° C | 38% | 1014.6 hPa | 0 mm | - | - | - |
| 1778018977 | 25° C | 38% | 1014.8 hPa | 0 mm | - | - | - |
| 1778018917 | 25° C | 37% | 1014.7 hPa | 0 mm | - | - | - |
| 1778018677 | 25° C | 40% | 1014.7 hPa | 0 mm | - | - | - |
| 1778018437 | 25° C | 42% | 1014.6 hPa | 0 mm | - | - | - |
| 1778018377 | 24.44° C | 42% | 1014.8 hPa | 0 mm | - | - | - |
* Rain latest hour (hover to see other rain measurements)
** Current wind speed in m/s (hover to see current wind gust speed)